Weather History for Bellefontaine, OH

Change the Weather History Date:

Tuesday, February 26, 2013

  Actual Average (KDAY) Record (KDAY)
Temperature  
Mean Temperature 36 °F 34 °F  
Max Temperature 41 °F 42 °F 72 °F (2000)
Min Temperature 32 °F 26 °F -8 °F (1963)
Degree Days  
Heating Degree Days 28 31  
Month to date heating degree days 891  
Since 1 July heating degree days 4214  
Cooling Degree Days 0 0  
Month to date cooling degree days 0  
Year to date cooling degree days 0  
Moisture  
Dew Point 34 °F    
Average Humidity 91    
Maximum Humidity 100    
Minimum Humidity 70    
Precipitation  
Precipitation 0.53 in 0.08 in 1.28 in (1957)
Month to date precipitation 2.07  
Year to date precipitation 4.78  
Snow  
Snow 0.00 in 0.20 in 3.50 in (1986)
Month to date snowfall 5.5  
Since 1 July snowfall 18.9  
Snow Depth -    
Sea Level Pressure  
Sea Level Pressure 29.59 in    
Wind  
Wind Speed 12 mph (East)    
Max Wind Speed 21 mph    
Max Gust Speed 29 mph    
Visibility 8 miles    
Events      
T = Trace of Precipitation, MM = Missing Value Source: NWS Daily Summary

Daily Weather History Graph

Daily Weather History Graph

Search for Another Location

Airport:

Trip Planner

Search our weather history database for the weather conditions in past years. The results will help you decide how hot, cold, wet, or windy it might be!

Date:

Astronomy

Feb. 26, 2013 Rise Set
Actual Time 7:13 AM EST 6:23 PM EST
Civil Twilight 6:45 AM EST 6:51 PM EST
Nautical Twilight 6:14 AM EST 7:22 PM EST
Astronomical Twilight 5:42 AM EST 7:54 PM EST
Moon 7:39 PM EST (2/26) 7:14 AM EST (2/26)
Length of Visible Light 12h 05m
Length of Day
11h 10m
Full, 99% of the Moon is Illuminated
Feb 26
Full
Mar 4
Last Quarter
Mar 11
New
Mar 19
First Quarter
Mar 27
Full

Hourly Weather History & Observations

Time (EST) Temp. Windchill Dew Point Humidity Pressure Visibility Wind Dir Wind Speed Gust Speed Precip Events Conditions
12:15 AM 32.0 °F 24.8 °F 26.6 °F 80% 29.94 in 10.0 mi ENE 8.1 mph - 0.00 in   Clear
12:30 AM 32.0 °F 23.6 °F 26.6 °F 80% 29.93 in 10.0 mi ENE 10.4 mph - 0.00 in   Clear
12:55 AM 32.0 °F 22.5 °F 26.6 °F 80% 29.92 in 10.0 mi ENE 12.7 mph - 0.00 in   Clear
1:15 AM 32.0 °F 24.2 °F 26.6 °F 80% 29.91 in 10.0 mi East 9.2 mph - 0.00 in   Clear
1:30 AM 32.0 °F 23.6 °F 26.6 °F 80% 29.92 in 10.0 mi ENE 10.4 mph - 0.00 in   Clear
1:50 AM 32.0 °F 23.6 °F 26.6 °F 80% 29.91 in 10.0 mi ENE 10.4 mph - 0.00 in   Clear
2:15 AM 32.0 °F 22.5 °F 24.8 °F 75% 29.88 in 10.0 mi ENE 12.7 mph 20.7 mph 0.00 in   Clear
2:30 AM 32.0 °F 23.6 °F 24.8 °F 75% 29.88 in 10.0 mi East 10.4 mph 21.9 mph 0.00 in   Clear
2:50 AM 32.0 °F 23.0 °F 26.6 °F 80% 29.85 in 10.0 mi ENE 11.5 mph - 0.00 in   Clear
3:15 AM 32.0 °F 22.5 °F 26.6 °F 80% 29.84 in 10.0 mi ENE 12.7 mph 18.4 mph 0.00 in   Clear
3:30 AM 32.0 °F 23.6 °F 26.6 °F 80% 29.83 in 10.0 mi ENE 10.4 mph - 0.00 in   Clear
3:50 AM 32.0 °F 23.0 °F 26.6 °F 80% 29.81 in 10.0 mi NE 11.5 mph - 0.00 in   Clear
4:10 AM 32.0 °F 24.8 °F 26.6 °F 80% 29.82 in 10.0 mi ENE 8.1 mph - 0.00 in   Clear
4:30 AM 32.0 °F 23.0 °F 26.6 °F 80% 29.80 in 10.0 mi ENE 11.5 mph 16.1 mph 0.00 in   Clear
4:50 AM 32.0 °F 23.6 °F 26.6 °F 80% 29.80 in 10.0 mi ENE 10.4 mph - 0.00 in   Clear
5:10 AM 32.0 °F 23.6 °F 26.6 °F 80% 29.80 in 10.0 mi ENE 10.4 mph - 0.00 in   Clear
5:30 AM 32.0 °F 23.0 °F 26.6 °F 80% 29.78 in 10.0 mi ENE 11.5 mph - 0.00 in   Clear
5:50 AM 32.0 °F 24.2 °F 26.6 °F 80% 29.77 in 10.0 mi ENE 9.2 mph - 0.00 in   Clear
6:15 AM 32.0 °F 24.2 °F 26.6 °F 80% 29.75 in 10.0 mi ENE 9.2 mph - 0.00 in   Clear
6:30 AM 32.0 °F 23.0 °F 26.6 °F 80% 29.74 in 10.0 mi ENE 11.5 mph 20.7 mph 0.00 in   Clear
6:50 AM 32.0 °F 23.0 °F 24.8 °F 75% 29.72 in 10.0 mi East 11.5 mph 16.1 mph 0.00 in   Partly Cloudy
7:15 AM 33.8 °F 23.9 °F 24.8 °F 70% 29.71 in 10.0 mi East 15.0 mph 21.9 mph 0.00 in   Overcast
7:30 AM 33.8 °F 24.8 °F 24.8 °F 70% 29.71 in 10.0 mi East 12.7 mph 21.9 mph 0.00 in   Overcast
7:50 AM 33.8 °F 25.8 °F 24.8 °F 70% 29.71 in 10.0 mi East 10.4 mph 24.2 mph 0.00 in   Overcast
8:15 AM 33.8 °F 24.3 °F 26.6 °F 75% 29.69 in 9.0 mi East 13.8 mph 20.7 mph 0.00 in   Overcast
8:30 AM 33.8 °F 23.5 °F 28.4 °F 81% 29.68 in 4.0 mi East 16.1 mph 23.0 mph 0.00 in   Overcast
8:55 AM 33.8 °F 25.8 °F 28.4 °F 81% 29.68 in 8.0 mi East 10.4 mph - 0.00 in   Overcast
9:30 AM 33.8 °F 24.8 °F 30.2 °F 87% 29.66 in 9.0 mi East 12.7 mph 18.4 mph 0.00 in   Overcast
9:55 AM 33.8 °F 23.9 °F 32.0 °F 93% 29.64 in 4.0 mi ENE 15.0 mph 20.7 mph 0.01 in   Overcast
10:10 AM 33.8 °F 22.8 °F 32.0 °F 93% 29.62 in 3.0 mi East 18.4 mph 26.5 mph 0.01 in   Overcast
10:30 AM 35.6 °F 24.8 °F 33.8 °F 93% 29.61 in 4.0 mi East 19.6 mph 25.3 mph 0.02 in   Overcast
10:55 AM 35.6 °F 26.2 °F 35.6 °F 100% 29.59 in 3.0 mi East 15.0 mph 21.9 mph 0.06 in   Mostly Cloudy
11:10 AM 35.6 °F 26.6 °F 35.6 °F 100% 29.58 in 3.0 mi ENE 13.8 mph 25.3 mph 0.01 in   Mostly Cloudy
11:30 AM 35.6 °F 25.9 °F 35.6 °F 100% 29.56 in 2.5 mi East 16.1 mph 21.9 mph 0.05 in   Mostly Cloudy
11:55 AM 35.6 °F 24.5 °F 35.6 °F 100% 29.53 in 1.8 mi East 20.7 mph 25.3 mph 0.09 in   Overcast
12:10 PM 35.6 °F 25.5 °F 35.6 °F 100% 29.52 in 1.8 mi ENE 17.3 mph 25.3 mph 0.02 in   Overcast
12:30 PM 35.6 °F 28.6 °F 35.6 °F 100% 29.51 in 3.0 mi ESE 9.2 mph 28.8 mph 0.04 in   Overcast
12:55 PM 37.4 °F 28.5 °F 37.4 °F 100% 29.52 in 7.0 mi ESE 15.0 mph 24.2 mph 0.05 in   Overcast
1:10 PM 37.4 °F 28.5 °F 37.4 °F 100% 29.51 in 2.0 mi ESE 15.0 mph 23.0 mph 0.03 in   Overcast
1:30 PM 37.4 °F 29.3 °F 37.4 °F 100% 29.50 in 2.5 mi ESE 12.7 mph 21.9 mph 0.11 in   Overcast
1:55 PM 37.4 °F 30.3 °F 37.4 °F 100% 29.48 in 4.0 mi East 10.4 mph 19.6 mph 0.16 in   Overcast
2:10 PM 37.4 °F 29.3 °F 37.4 °F 100% 29.47 in 5.0 mi ESE 12.7 mph 21.9 mph 0.00 in   Mostly Cloudy
2:30 PM 37.4 °F 27.8 °F 37.4 °F 100% 29.46 in 10.0 mi ESE 17.3 mph 25.3 mph 0.00 in   Overcast
2:55 PM 37.4 °F 29.8 °F 37.4 °F 100% 29.44 in 10.0 mi ESE 11.5 mph 25.3 mph 0.00 in   Overcast
3:10 PM 37.4 °F 28.2 °F 37.4 °F 100% 29.43 in 10.0 mi East 16.1 mph 25.3 mph 0.00 in   Overcast
3:35 PM 39.2 °F 30.8 °F 39.2 °F 100% 29.42 in 5.0 mi ESE 15.0 mph 24.2 mph 0.00 in   Mostly Cloudy
3:50 PM 39.2 °F 30.8 °F 39.2 °F 100% 29.41 in 9.0 mi ESE 15.0 mph 26.5 mph 0.00 in   Overcast
4:10 PM 39.2 °F 31.2 °F 39.2 °F 100% 29.42 in 5.0 mi ESE 13.8 mph 19.6 mph 0.00 in   Overcast
4:30 PM 39.2 °F 31.6 °F 39.2 °F 100% 29.41 in 3.0 mi ESE 12.7 mph 19.6 mph 0.02 in   Overcast
4:50 PM 39.2 °F 31.6 °F 39.2 °F 100% 29.41 in 4.0 mi ESE 12.7 mph 20.7 mph 0.05 in   Overcast
5:10 PM 39.2 °F 32.0 °F 39.2 °F 100% 29.40 in 5.0 mi ESE 11.5 mph 20.7 mph 0.00 in   Overcast
5:35 PM 39.2 °F 31.6 °F 39.2 °F 100% 29.40 in 10.0 mi ESE 12.7 mph 23.0 mph 0.00 in   Overcast
5:55 PM 41.0 °F 33.1 °F 41.0 °F 100% 29.39 in 9.0 mi SE 15.0 mph 23.0 mph 0.00 in   Overcast
6:10 PM 41.0 °F 33.9 °F 41.0 °F 100% 29.40 in 10.0 mi SE 12.7 mph 23.0 mph 0.00 in   Overcast
6:35 PM 41.0 °F 33.1 °F 41.0 °F 100% 29.40 in 5.0 mi ESE 15.0 mph 23.0 mph 0.00 in   Overcast
6:50 PM 39.2 °F 31.6 °F 39.2 °F 100% 29.40 in 4.0 mi SE 12.7 mph 20.7 mph 0.02 in   Overcast
7:10 PM 39.2 °F 31.2 °F 39.2 °F 100% 29.40 in 6.0 mi ESE 13.8 mph 19.6 mph 0.00 in   Overcast
7:35 PM 39.2 °F 32.5 °F 39.2 °F 100% 29.41 in 7.0 mi SE 10.4 mph 20.7 mph 0.00 in   Overcast
7:50 PM 39.2 °F 30.8 °F 39.2 °F 100% 29.41 in 3.0 mi SE 15.0 mph 23.0 mph 0.02 in   Overcast
8:10 PM 39.2 °F 31.2 °F 39.2 °F 100% 29.41 in 4.0 mi SE 13.8 mph 21.9 mph 0.00 in   Overcast
8:35 PM 39.2 °F 30.8 °F 39.2 °F 100% 29.41 in 6.0 mi SE 15.0 mph - 0.03 in   Overcast
8:50 PM 39.2 °F 31.2 °F 39.2 °F 100% 29.41 in 5.0 mi SSE 13.8 mph - 0.06 in   Overcast
9:10 PM 39.2 °F 32.5 °F 39.2 °F 100% 29.41 in 8.0 mi SE 10.4 mph - 0.01 in   Overcast
9:35 PM 39.2 °F 33.0 °F 39.2 °F 100% 29.40 in 10.0 mi SE 9.2 mph - 0.01 in   Overcast
9:50 PM 39.2 °F 33.0 °F 39.2 °F 100% 29.40 in 10.0 mi SSE 9.2 mph - 0.01 in   Overcast
10:10 PM 39.2 °F 32.0 °F 39.2 °F 100% 29.41 in 10.0 mi South 11.5 mph - 0.00 in   Overcast
10:35 PM 41.0 °F 34.3 °F 41.0 °F 100% 29.41 in 10.0 mi South 11.5 mph - 0.00 in   Overcast
10:50 PM 41.0 °F 33.9 °F 41.0 °F 100% 29.41 in 10.0 mi SSW 12.7 mph - 0.00 in   Overcast
11:10 PM 41.0 °F 33.5 °F 41.0 °F 100% 29.41 in 10.0 mi SW 13.8 mph - 0.00 in   Overcast
11:35 PM 41.0 °F 33.5 °F 41.0 °F 100% 29.43 in 10.0 mi SSW 13.8 mph 19.6 mph 0.00 in   Overcast
11:50 PM 41.0 °F 33.9 °F 41.0 °F 100% 29.43 in 9.0 mi SSW 12.7 mph - 0.00 in   Overcast